Home   Weather   St. George   Past weeks

Flag for USA Past Weather in St. George, Utah, USA — Yesterday and Last 2 Weeks

Now
58 °F

Sunny.


Feels Like: 58 °F
Forecast: 55 / 88 °F
Wind: 3 mph from Northeast

Location: Saint George

Current Time: Apr 23, 2017 at 7:59:21 am

Latest Report: Apr 23, 2017 at 6:56 am


Visibility: 10 mi

Pressure: 29.78 "Hg (26.94 "Hg at 842m altitude)

Humidity: 31%

Dew Point: 27 °F

Location of St. GeorgeLocation

Past Weather in St. George — Graph

°F

St. George Temperature Yesterday

Maximum temperature yesterday: 79 °F (at 5:56 pm)
Minimum temperature yesterday: 48 °F (at 6:56 am)
Average temperature yesterday: 65 °F

High & Low Weather Summary for the Past Weeks

 TemperatureHumidityPressure
High85 °F (Apr 13, 3:56 pm)59% (Apr 19, 6:56 am)30.16 "Hg (Apr 19, 6:56 am)
Low40 °F (Apr 10, 5:56 am)7% (Apr 10, 3:56 pm)29.57 "Hg (Apr 8, 6:56 pm)
Average64 °F26%29.92 "Hg
* Reported Apr 8 5:56 am — Apr 23 5:56 am, St. George, Weather by CustomWeather, © 2017

Note: Actual official high and low records may vary slightly from our data, if they occured in-between our weather recording intervals... More about our weather records

Advertising

St. George Weather History for the Previous 24 Hours

Scroll right to see more
 ConditionsComfort  
Time TempWeatherWind HumidityBarometerVisibility
5:56 am
Sun, Apr 23
59 °FClear.9 mph27%29.77 "Hg10 mi
4:56 am60 °FClear.7 mph26%29.80 "Hg10 mi
3:56 am63 °FClear.3 mph23%29.80 "Hg10 mi
2:56 am61 °FClear.8 mph25%29.82 "Hg10 mi
1:56 am63 °FClear.5 mph25%29.84 "Hg10 mi
12:56 am65 °FClear.No wind26%29.87 "Hg10 mi
11:56 pm
Sat, Apr 22
63 °FClear.5 mph26%29.87 "Hg10 mi
10:56 pm64 °FClear.6 mph24%29.88 "Hg10 mi
9:56 pm67 °FClear.No wind21%29.87 "Hg10 mi
8:56 pm75 °FClear.No wind15%29.84 "Hg10 mi
7:56 pm77 °FSunny.3 mph14%29.85 "Hg10 mi
6:56 pm78 °FSunny.3 mph13%29.87 "Hg10 mi
5:56 pm79 °FSunny.7 mph13%29.88 "Hg10 mi
4:56 pm78 °FSunny.5 mph13%29.90 "Hg10 mi
3:56 pm77 °FSunny.7 mph13%29.93 "Hg10 mi
2:56 pm75 °FSunny.6 mph14%29.95 "Hg10 mi
1:56 pm72 °FSunny.5 mph16%29.99 "Hg10 mi
12:56 pm69 °FSunny.6 mph17%30.03 "Hg10 mi
11:56 am66 °FSunny.6 mph19%30.06 "Hg10 mi
10:56 am63 °FSunny.6 mph22%30.09 "Hg10 mi
9:56 am59 °FSunny.No wind25%30.10 "Hg10 mi
8:56 am58 °FSunny.7 mph25%30.10 "Hg10 mi
7:56 am52 °FSunny.3 mph31%30.09 "Hg10 mi
Weather by CustomWeather, © 2017

See weather overviewHow to use our weather pages